Regional Weather Roundup
Issued by NWS

Home | Current Version | Previous Version | Graphics & Text | Print | Product List | Glossary On
Versions: 1 2 3 4 5 6 7 8 9 10 11 12 13 14 15 16 17 18 19 20 21 22 23 24 25 26 27 28 29 30 31 32 33 34 35 36 37 38 39 40 41 42 43 44 45 46 47 48 49 50
000
ASUS43 KDTX 280710
RWRMI
MICHIGAN HOURLY REGIONAL WEATHER ROUNDUP
NATIONAL WEATHER SERVICE DETROIT/PONTIAC MI
300 AM EDT TUE MAR 28 2017

NOTE: "FAIR" INDICATES FEW OR NO CLOUDS BELOW 12,000 FEET WITH NO
SIGNIFICANT WEATHER AND/OR OBSTRUCTION TO VISIBILITY.

MIZ047>049-052>055-059>063-066>070-074>076-081>083-280800-
SOUTHEAST LOWER MICHIGAN

CITY           SKY/WX    TMP DP  RH WIND       PRES   REMARKS
ADRIAN         CLOUDY    50  46  86 NE10      29.89F
ANN ARBOR      CLOUDY    50  46  86 NW7       29.89F
BAD AXE        CLOUDY    37  37  99 CALM      29.96S
CARO           CLOUDY    39  39  98 CALM      29.95F FOG
DETROIT CITY   CLOUDY    45  44  97 NE6       29.91S
DETROIT        CLOUDY    52  46  80 N7        29.90S
FLINT          CLOUDY    44  42  93 N8        29.94S FOG
GROSSE ILE     CLOUDY    46  44  92 NE10      29.88F
HILLSDALE      CLOUDY    46  45  93 N8        29.89S
HOWELL         CLOUDY    46  42  85 N5        29.91F

CITY           SKY/WX    TMP DP  RH WIND       PRES   REMARKS
JACKSON        CLOUDY    47  43  86 N7        29.91S
LAMBERTVILLE   CLOUDY    53  49  84 N7        29.88S
LANSING        CLOUDY    45  40  82 N7        29.94S
LAPEER         CLOUDY    40  39  99 NE7       29.95R FOG     WCI  35
MASON          CLOUDY    46  42  89 N7        29.93S
MONROE         CLOUDY    51  49  90 N13       29.87F
MT. CLEMENS    CLOUDY    41  41 100 N12       29.91S
PONTIAC        CLOUDY    48  43  82 N8        29.90S
PORT HOPE        N/A     36  34  92 NW5       29.95S WCI  32
PORT HURON     CLOUDY    37  36  93 N8        29.94S WCI  31
TRI CITIES     CLOUDY    40  40 100 NE8       29.97S FOG     WCI  34
MIDLAND        CLOUDY    39  38  97 CALM      29.97S FOG
TROY           CLOUDY    47  43  86 N9        29.93S
SAGINAW HB     CLOUDY    41  37  87 NE9       29.96S FOG
$$
MIZ043>046-050>051-056>058-064>065-071>073-077>080-280800-
SOUTHWEST LOWER MICHIGAN

CITY           SKY/WX    TMP DP  RH WIND       PRES   REMARKS
BATTLE CREEK   CLOUDY    46  43  89 N6        29.93S
BENTON HARBOR  CLOUDY    39  36  89 N5        29.96S
BIG RAPIDS     CLOUDY    38  35  90 N5        29.97S WCI  34
COLDWATER      CLOUDY    47  45  92 N6        29.91S
FREMONT        CLOUDY    38  37  96 N6        29.98S WCI  34
HOLLAND        CLOUDY    41  37  86 N5        29.97S
GRAND RAPIDS   CLOUDY    44  42  93 N7        29.95S
IONIA          CLOUDY    43  40  90 N7        29.95S
KALAMAZOO      CLOUDY    44  39  82 N8        29.93F
LUDINGTON      CLOUDY    37  36  97 CALM      30.00S
MARSHALL       CLOUDY    46  43  90 N5        29.91F
MOUNT PLEASANT CLOUDY    39  36  86 N6        29.97S
MUSKEGON       CLOUDY    40  37  89 N8        29.98S WCI  34
SOUTH HAVEN    CLOUDY    38  37  95 N6        29.96S WCI  34
$$
MIZ016>042-280800-
NORTHERN LOWER MICHIGAN

CITY           SKY/WX    TMP DP  RH WIND       PRES   REMARKS
ALPENA         CLOUDY    36  36 100 N8        29.99S FOG     WCI  30
BEAVER ISLAND  CLOUDY    32  32 100 NE5       30.02S FOG     WCI  27
BELLAIRE       CLOUDY    36  33  90 CALM      30.01S
CADILLAC       CLOUDY    35  34  96 N3        29.97S FOG
CHARLEVOIX     CLOUDY    34  34 100 N5        30.05R WCI  30
FRANKFORT      CLOUDY    37  33  88 NW3       30.02R
GAYLORD        FOG       36  32  85 CALM      29.97S VSB 1
GRAYLING       CLOUDY    36  34  93 NW3       29.98F
HARBOR SPRINGS CLOUDY    33  33 100 CALM      30.01S
HOUGHTON LAKE  CLOUDY    36  34  92 N5        29.98R WCI  32
MANISTEE       CLOUDY    37  36  93 N3        30.01S
OSCODA         CLOUDY    38  37  97 N3        29.97R
PELLSTON       CLOUDY    35  32  88 NW7       30.01S WCI  29
ROGERS CITY    CLOUDY    36  33  92 NW6       30.01R FOG     WCI  31
TRAVERSE CITY  CLOUDY    37  34  89 N3        30.00F
$$
MIZ007>008-015-280800-
EASTERN UPPER MICHIGAN

CITY           SKY/WX    TMP DP  RH WIND       PRES   REMARKS
KINROSS        CLOUDY    34  32  93 N5        30.01S WCI  30
MACKINAC ISLAN CLOUDY    33  33 100 N7        30.01R WCI  26
NEWBERRY       FOG       31  31  98 N5        30.01S VSB 1/4 WCI  26
S. S. MARIE    CLOUDY    37  33  85 CALM      30.01S
MUNISING         N/A     31  31 100 N3        30.04R
$$
MIZ004>006-011>014-085-280800-
CENTRAL UPPER MICHIGAN

CITY           SKY/WX    TMP DP  RH WIND       PRES   REMARKS
MANISTIQUE     FOG       30  30 100 N8        30.02S VSB 3/4 WCI  23
ESCANABA       CLEAR     27  27 100 CALM      30.04S
MENOMINEE        N/A    N/A N/A N/A MISG        N/A
SAWYER-GWINN   CLEAR     29  29  99 N3        30.03R
$$
MIZ001>003-009>011-084-280800-
WESTERN UPPER MICHIGAN

CITY           SKY/WX    TMP DP  RH WIND       PRES   REMARKS
IRON MOUNTAIN  MOCLDY    27  24  89 CALM      30.02S FOG
HOUGHTON       CLEAR     31  27  85 NW7       30.03S WCI  24
COPPER HARBOR    N/A     30  29  96 W3        30.04R
IRONWOOD       CLEAR     24  23  96 CALM      30.06R
$$

ABBREVIATIONS USED IN REMARKS
   TC - TEMPERATURE IN CELSIUS
  WCI - WIND CHILL INDEX
   HX - HEAT INDEX
  VSB - VISIBILITY




USA.gov is the U.S. government's official web portal to all federal, state and local government web resources and services.